TISXTNCM

Guest
Details From TISX - St Croix - Henry E Rohlsen
To TNCM - St Maarten - Princess Juliana Intl
Flight Number -
Tags generated
Created
Modified
Stats Distance 99 nm / 183 km
Max Altitude 6,900 ft / 2,103 m
Waypoints 3
Social Downloads 2
Likes 0
Share VATSIM

Download

Looking for another format? Having issues loading an existing format? Contact us
Advertisement - Login to hide

Notes

Basic altitude profile: - Ascent Rate: 2500ft/min - Ascent Speed: 360kts - Cruise Altitude: 30000ft - Cruise Speed: 480kts - Descent Rate: 3600ft/min - Descent Speed: 260kts Options: - Use NATs: yes - Use PACOTS: yes - Use low airways: no - Use high airways: yes

Route

TISX GOUDA TNCM

ID Type Via Altitude Latitude Longitude Leg Dist Tot Dist Heading (true) Name
O TISX APT - 0 ft / 0 m 17.70151˚ -64.80197˚ - 0 nm - St Croix - Henry E Rohlsen
GOUDA FIX - 6,900 ft / 2,103 m 17.93402˚ -63.66667˚ 66 nm 66 nm 78° / 78° -
O TNCM APT - 0 ft / 0 m 18.04089˚ -63.10897˚ 32 nm 98 nm 79° / 79° St Maarten - Princess Juliana Intl

Altitude Profile

Advertisement - Login to hide

TISX

Details ICAO TISX (STX)
Name St Croix - Henry E Rohlsen
Region USA (U.S. Virgin Islands)
Timezone America/St_Thomas (UTC-4.0)
Stats Elevation 65 ft / 20 m (AMSL)
Location 17.701505° -64.801975°
Runways 1
Magnetic Variation 13.677° W

METAR

TISX 172353Z 08008KT 10SM SCT016 BKN048 OVC095 24/23 A3005 RMK AO2 RAB00E36 SLP174 P0004 60006 T02390233 10283 20233 53014

Decode

TAF

TAF TISX 172323Z 1800/1824 07012KT P6SM -RA SCT025 SCT040 BKN070 TEMPO 1800/1804 VRB12G22KT 5SM SHRA BKN025 BKN040 FM180400 05011KT P6SM VCSH SCT025 BKN050 FM181450 08014G22KT P6SM SCT028 SCT050 SCT080

Decode

Departure Runways

ID Width Length Bearing (true) Bearing (mag) Surface Threshold Offset Overrun Length
10 151 ft / 46 m 9,969 ft / 3,039 m 83.93° 97.61° Asphalt 0 ft / 0 m 200 ft / 61 m
28 151 ft / 46 m 9,969 ft / 3,039 m 263.93° 277.61° Asphalt 984 ft / 300 m 200 ft / 61 m

TNCM

Details ICAO TNCM (SXM)
Name St Maarten - Princess Juliana Intl
Region Caribbean Netherlands, Aruba, Curaçao, Sint Maarten
Timezone Unknown (UTC+0.0)
Stats Elevation 12 ft / 4 m (AMSL)
Location 18.040889° -63.108974°
Runways 1
Magnetic Variation 14.325° W

METAR

TNCM 180000Z 06009KT 030V090 9999 -SHRA SCT019 26/23 Q1017 A3004 NOSIG

Decode

TAF

TAF TNCM 172323Z 1800/1824 04012KT P6SM VCSH FEW018 SCT035 TEMPO 1800/1804 VRB12G20KT -SHRA BKN018 BKN035 FM180500 07011KT P6SM -RA SCT018 SCT040 FM181430 08014KT P6SM SCT022 SCT060

Decode

Destination Runways

ID Width Length Bearing (true) Bearing (mag) Surface Threshold Offset Overrun Length
10 148 ft / 45 m 7,464 ft / 2,275 m 81.43° 95.76° Asphalt 0 ft / 0 m 151 ft / 46 m
28 148 ft / 45 m 7,464 ft / 2,275 m 261.44° 275.77° Asphalt 397 ft / 121 m 0 ft / 0 m

Popular Alternatives